Preview of NWS' New Version of Forecast
This preview is not operational and should not be used for support decisions.

Regional Weather Roundup (RWR)

Issued by National Weather Service (NWS)

                            
000
ASUS43 KDTX 240301
RWRMI 
MICHIGAN HOURLY REGIONAL WEATHER ROUNDUP
NATIONAL WEATHER SERVICE DETROIT/PONTIAC MI
1100 PM EDT TUE APR 23 2019

NOTE: "FAIR" INDICATES FEW OR NO CLOUDS BELOW 12,000 FEET WITH NO
SIGNIFICANT WEATHER AND/OR OBSTRUCTION TO VISIBILITY.

MIZ047>049-052>055-059>063-066>070-074>076-081>083-240400-
SOUTHEAST LOWER MICHIGAN
  
CITY           SKY/WX    TMP DP  RH WIND       PRES   REMARKS
ADRIAN         FAIR      50  37  61 NW8       30.01R                  
ALMA           FAIR      46  35  66 NW9       30.03R                  
ANN ARBOR      FAIR      47  38  71 NW6       29.98R                  
BAD AXE        CLOUDY    44  36  73 NW8       29.96S                  
CARO           CLOUDY    45  37  73 NW8       29.98S                  
DETROIT CITY   FAIR      51  36  56 NW8       29.96R                  
DETROIT        FAIR      50  37  61 W8        29.98R                  
FLINT          FAIR      46  35  65 N14G22    30.00R                  
GROSSE ILE     FAIR      49  39  67 W5        29.97R                  
HILLSDALE      FAIR      45  35  68 NW5       30.00S                  
HOWELL         FAIR      47  36  65 NW7       29.99R                  

CITY           SKY/WX    TMP DP  RH WIND       PRES   REMARKS
JACKSON        FAIR      47  37  68 W6        30.00R                  
LAMBERTVILLE   FAIR      50  40  69 CALM      29.99R                  
LANSING        FAIR      45  36  70 NW7       30.01R                  
LAPEER         FAIR      45  37  73 N9        29.98S                  
MASON          FAIR      46  37  71 NW5       30.00R                  
MONROE         FAIR      49  44  83 W7        29.98R                  
MT. CLEMENS    PTCLDY    47  39  74 N7        29.95R                  
PONTIAC        FAIR      47  37  68 NW10      29.96S                  
PORT HOPE        N/A     45  36  70 NW16G24   29.94R                  
TRI CITIES     FAIR      44  36  73 NW12G23   30.01R                  
MIDLAND        FAIR      43  35  72 W8        30.00S                  
TROY           FAIR      50  32  49 NW9G17    29.98S                  
SAGINAW HB     FAIR      45  36  70 NW8       30.00S                  
$$
MIZ043>046-050>051-056>058-064>065-071>073-077>080-240400-
SOUTHWEST LOWER MICHIGAN
  
CITY           SKY/WX    TMP DP  RH WIND       PRES   REMARKS
BATTLE CREEK   FAIR      45  36  70 W6        30.03R                  
BENTON HARBOR  FAIR      40  35  83 CALM      30.06R                  
BIG RAPIDS     FAIR      42  34  74 N3        30.03S                  
COLDWATER      FAIR      45  40  83 SW3       30.02S                  
FREMONT        FAIR      43  29  56 N6        30.03S                  
HOLLAND        FAIR      40  36  86 W6        30.05S                  
GRAND RAPIDS   FAIR      49  29  46 NW8       30.03R                  
IONIA          FAIR      45  32  61 NW5       30.01S                  
KALAMAZOO      FAIR      44  36  73 NW3       30.03F                  
LUDINGTON      FAIR      41  33  73 CALM      30.05S                  
MARSHALL       FAIR      43  38  82 W5        30.01S                  
MOUNT PLEASANT FAIR      43  35  73 NW7       30.02R                  
MUSKEGON       FAIR      39  34  82 SW5       30.05R                  
SOUTH HAVEN    FAIR      40  37  87 CALM      30.05F                  
$$
MIZ016>042-240400-
NORTHERN LOWER MICHIGAN
  
CITY           SKY/WX    TMP DP  RH WIND       PRES   REMARKS
ALPENA         FAIR      41  34  76 NW10      29.97R                  
BEAVER ISLAND  FAIR      38  29  68 NW6       30.04R WCI  34          
BELLAIRE       FAIR      36  34  92 CALM      30.04R                  
CADILLAC       FAIR      38  35  87 NW8       30.01S WCI  32          
CHARLEVOIX     FAIR      39  33  77 NW7       30.06R WCI  34          
FRANKFORT      FAIR      44  32  63 NE3       30.05S                  
GAYLORD        FAIR      36  34  92 CALM      30.00R                  
GRAYLING         N/A     36  33  90 W5        30.00R WCI  32          
HARBOR SPRINGS FAIR      39  32  76 CALM      30.02S                  
HOUGHTON LAKE  FAIR      38  32  79 NW7       30.00S WCI  33          
MANISTEE       FAIR      38  34  85 CALM      30.05S                  
OSCODA         FAIR      41  33  73 NW9       29.96R                  
PELLSTON       FAIR      37  32  82 NW8       30.02R WCI  31          
ROGERS CITY    FAIR      40  33  76 NW13G18   30.00R WCI  32          
TRAVERSE CITY  FAIR      41  33  73 NW6       30.04S                  
$$
MIZ007>008-015-240400-
EASTERN UPPER MICHIGAN
  
CITY           SKY/WX    TMP DP  RH WIND       PRES   REMARKS
KINROSS        FAIR      35  31  85 NW8       30.00R WCI  29          
MACKINAC ISLAN FAIR      37  32  84 NW7       30.01S WCI  31          
NEWBERRY       FAIR      33  29  84 W5        30.02R WCI  29          
S. S. MARIE    FAIR      42  31  64 N9        29.99S                  
MUNISING         N/A     32  25  75 S6        30.04S WCI  26          
$$
MIZ004>006-011>014-085-240400-
CENTRAL UPPER MICHIGAN
  
CITY           SKY/WX    TMP DP  RH WIND       PRES   REMARKS
MANISTIQUE     FAIR      34  20  57 NW5       30.03S WCI  30          
ESCANABA       FAIR      35  29  78 CALM      30.06R                  
MENOMINEE      FAIR      41  33  73 CALM      30.07R                  
SAWYER-GWINN   FAIR      35  26  69 CALM      30.03S                  
$$
MIZ001>003-009>011-084-240400-
WESTERN UPPER MICHIGAN
  
CITY           SKY/WX    TMP DP  RH WIND       PRES   REMARKS
IRON MOUNTAIN  FAIR      37  23  56 CALM      30.03R                  
HOUGHTON       FAIR      37  28  70 CALM      30.02F                  
COPPER HARBOR    N/A     33  27  78 CALM      30.03F                  
IRONWOOD       FAIR      45  29  53 CALM      30.00F                  
$$

ABBREVIATIONS USED IN REMARKS
   TC - TEMPERATURE IN CELSIUS
  WCI - WIND CHILL INDEX
   HX - HEAT INDEX
  VSB - VISIBILITY